Regional Weather Roundup
Issued by NWS Cleveland, OH

Home | Current Version | Previous Version | Text Only | Print | Product List | Glossary Off
Versions: 1 2 3 4 5 6 7 8 9 10 11 12 13 14 15 16 17 18 19 20 21 22 23 24 25 26 27 28 29 30 31 32 33 34 35 36 37 38 39 40 41 42 43 44 45 46 47 48 49 50

000
ASUS41 KCLE 050110
RWRCLE
OHIO REGIONAL WEATHER ROUNDUP
NATIONAL WEATHER SERVICE WILMINGTON, OH
800 PM EST WED MAR 04 2015

NOTE: "FAIR" INDICATES FEW OR NO CLOUDS BELOW 12,000 FEET WITH NO
SIGNIFICANT WEATHER AND/OR OBSTRUCTIONS TO VISIBILITY.

OHZ001>008-015>018-024>027-034-035-043-044-050200-
   NORTHWEST OHIO

CITY           SKY/WX    TMP DP  RH WIND       PRES   REMARKS
DEFIANCE       CLOUDY    21   7  54 NW20G28   30.18R WCI   6
FINDLAY        CLOUDY    25  13  60 NW16G25   30.12R WCI  12
TOLEDO EXPRESS CLOUDY    22   8  55 NW13      30.13R WCI  10
TOLEDO EXEC    CLOUDY    25  11  55 NW17      30.13R WCI  12
LIMA           CLOUDY    25  15  66 NW18      30.12R WCI  11
$$

OHZ009>014-019>023-028>033-038-089-050200-
   NORTHEAST OHIO

CITY           SKY/WX    TMP DP  RH WIND       PRES   REMARKS
CLE-HOPKINS    CLOUDY    29  18  63 W17       30.08R WCI  17
CLE-LAKEFRONT  CLOUDY    30  22  72 W22       30.05R WCI  17
CUY CO. ARPT   CLOUDY    32  25  74 W14G23    30.04R WCI  22
LORAIN-ELYRIA  CLOUDY    28  15  58 NW16      30.07R WCI  16
ASHTABULA      CLOUDY    31  21  66 W8        30.00R WCI  23
AKRON-CANTON   CLOUDY    32  22  66 W10       30.01R WCI  24
WOOSTER        CLOUDY    29  22  75 NW13      30.04R WCI  19
MANSFIELD      CLOUDY    28  19  69 W9        30.03R WCI  19
YOUNGSTOWN     CLOUDY    31  24  75 NW8       29.99R WCI  23
$$

OHZ042-051>053-060>062-070>072-077>081-050200-
  SOUTHWEST OHIO

CITY           SKY/WX    TMP DP  RH WIND       PRES   REMARKS
CINC-COVINGTON LGT SNOW  27  24  89 NW15      30.12R VSB 3/4 WCI  15
CINC-LUNKEN    LGT SNOW  28  26  92 N10       30.16R VSB 1   WCI  19
HAMILTON       LGT SNOW  28  26  92 NW8       30.15R FOG     WCI  20
DAYTON         LGT SNOW  28  22  78 NW17      30.13R WCI  16
WRIGHT-PAT AFB LGT SNOW  27  24  87 NW14G24   30.12R FOG     WCI  16
DAYTON GENERAL LGT SNOW  27  25  92 N12       30.11R FOG     WCI  17
WILMINGTON     LGT SNOW  27  24  89 N15       30.09R VSB 3/4 WCI  15
$$

OHZ036-037-039>041-045>050-054>059-063>069-073>076-082>088-050200-
  CENTRAL AND SOUTHEAST OHIO

CITY           SKY/WX    TMP DP  RH WIND       PRES   REMARKS
COLUMBUS       LGT SNOW  29  27  92 N7        30.06F FOG     WCI  22
OSU AIRPORT    LGT SNOW  29  25  85 NW9       30.07R FOG     WCI  20
BOLTON FIELD   LGT SNOW N/A N/A N/A NW8       30.09R
RICKENBACK AFB LGT SNOW  29  27  92 NW12      30.08R VSB 1   WCI  20
NEWARK         LGT SNOW  30  26  85 NW10      30.06R FOG     WCI  21
MARION         CLOUDY    28  19  69 NW15      30.08R WCI  16
LANCASTER      LGT SNOW  31  28  89 NW7       30.08R VSB 1   WCI  24
ZANESVILLE     LGT SNOW  30  27  88 N7        30.04R VSB 1   WCI  23
NEW PHILLY     LGT SNOW  33  25  72 NW8       30.05R WCI  26
$$



USA.gov is the U.S. government's official web portal to all federal, state and local government web resources and services.